RYR84KM EGGW-LEMI

Flight info

Callsign RYR84KM
Flight time 2h 11m
Altitude 35000
Route RODNI N27 ICTAM Q63 CPT N859 VAPID UN859 BENAR/N0426F330 UN859 SOPIL DCT BALAN DCT LMG/N0441F390 DCT PIMQO DCT AGN DCT ANETO DCT POSSY DCT XIMPE DCT RIMES N860 VLC L34 ALT
Aircraft B38M/M-SADE3FGILRWY/SB1

Departure

Time 2026-04-21 16:39
Airport London Luton Airport (EGGW)

Arrival

Time 2026-04-21 18:50
Airport Region of Murcia International Airport (LEMI)
Time Latitude Longitude Altitude Speed Heading
2026-04-21 16:14 51.87989 -0.37859 539 ft 0 kts 127°
2026-04-21 16:33 51.88002 -0.37887 539 ft 4 kts 128°
2026-04-21 16:33 51.88018 -0.37917 539 ft 4 kts 153°
2026-04-21 16:33 51.88035 -0.37912 539 ft 3 kts 217°
2026-04-21 16:33 51.88053 -0.37891 539 ft 4 kts 217°
2026-04-21 16:34 51.88057 -0.37886 539 ft 0 kts 217°
2026-04-21 16:35 51.88047 -0.37897 539 ft 5 kts 217°
2026-04-21 16:35 51.87998 -0.37958 539 ft 12 kts 217°
2026-04-21 16:36 51.87920 -0.38013 539 ft 13 kts 186°
2026-04-21 16:36 51.87831 -0.37970 539 ft 14 kts 143°
2026-04-21 16:36 51.87776 -0.37830 539 ft 16 kts 112°
2026-04-21 16:36 51.87732 -0.37656 538 ft 17 kts 115°
2026-04-21 16:37 51.87663 -0.37489 538 ft 19 kts 143°
2026-04-21 16:37 51.87536 -0.37475 538 ft 20 kts 208°
2026-04-21 16:37 51.87481 -0.37675 539 ft 21 kts 257°
2026-04-21 16:37 51.87440 -0.37904 539 ft 22 kts 255°
2026-04-21 16:38 51.87348 -0.38082 540 ft 18 kts 207°
2026-04-21 16:38 51.87267 -0.38101 540 ft 11 kts 148°
2026-04-21 16:38 51.87286 -0.37871 540 ft 53 kts 74°
2026-04-21 16:38 51.87463 -0.36867 538 ft 129 kts 72°
2026-04-21 16:39 51.87753 -0.35340 1052 ft 154 kts 72°
2026-04-21 16:39 51.88073 -0.33615 2069 ft 157 kts 73°
2026-04-21 16:39 51.88372 -0.31867 3143 ft 171 kts 73°
2026-04-21 16:39 51.88713 -0.29892 3953 ft 193 kts 73°
2026-04-21 16:40 51.89090 -0.27693 4801 ft 213 kts 76°
2026-04-21 16:40 51.89056 -0.25199 5610 ft 236 kts 108°
2026-04-21 16:40 51.88033 -0.22999 6500 ft 260 kts 143°
2026-04-21 16:40 51.86293 -0.22160 7687 ft 271 kts 177°
2026-04-21 16:41 51.84459 -0.22978 8648 ft 289 kts 209°
2026-04-21 16:41 51.83073 -0.25363 9713 ft 300 kts 242°
2026-04-21 16:41 51.82530 -0.28645 10608 ft 310 kts 266°
2026-04-21 16:41 51.82429 -0.32222 11167 ft 328 kts 264°
2026-04-21 16:42 51.82154 -0.35961 11785 ft 341 kts 261°
2026-04-21 16:42 51.81763 -0.39779 12597 ft 345 kts 259°
2026-04-21 16:42 51.81299 -0.43578 13510 ft 346 kts 257°
2026-04-21 16:42 51.80767 -0.47418 14188 ft 353 kts 256°
2026-04-21 16:43 51.80205 -0.51304 14858 ft 356 kts 256°
2026-04-21 16:43 51.79636 -0.55131 15661 ft 355 kts 256°
2026-04-21 16:43 51.79049 -0.59015 16321 ft 357 kts 256°
2026-04-21 16:43 51.78453 -0.62921 16955 ft 360 kts 256°
2026-04-21 16:44 51.77850 -0.66861 17566 ft 363 kts 256°
2026-04-21 16:44 51.77239 -0.70838 18130 ft 366 kts 256°
2026-04-21 16:44 51.76625 -0.74823 18743 ft 366 kts 256°
2026-04-21 16:44 51.75699 -0.78638 19256 ft 367 kts 239°
2026-04-21 16:45 51.74073 -0.81828 19744 ft 370 kts 228°
2026-04-21 16:45 51.72284 -0.84847 20153 ft 374 kts 229°
2026-04-21 16:45 51.70493 -0.87812 20641 ft 375 kts 228°
2026-04-21 16:45 51.68657 -0.90811 21099 ft 377 kts 229°
2026-04-21 16:46 51.66802 -0.93813 21542 ft 379 kts 229°
2026-04-21 16:46 51.64930 -0.96826 21944 ft 382 kts 230°
2026-04-21 16:46 51.63047 -0.99845 22417 ft 382 kts 230°
2026-04-21 16:46 51.61160 -1.02864 22848 ft 384 kts 231°
2026-04-21 16:47 51.59260 -1.05899 23221 ft 386 kts 231°
2026-04-21 16:47 51.57349 -1.08948 23608 ft 388 kts 232°
2026-04-21 16:47 51.55427 -1.12010 23951 ft 389 kts 232°
2026-04-21 16:47 51.53504 -1.15068 24311 ft 389 kts 232°
2026-04-21 16:48 51.51357 -1.17801 24617 ft 403 kts 216°
2026-04-21 16:48 51.48688 -1.19368 24987 ft 419 kts 196°
2026-04-21 16:48 51.45736 -1.19483 25297 ft 433 kts 176°
2026-04-21 16:48 51.42831 -1.18079 25592 ft 442 kts 156°
2026-04-21 16:49 51.40249 -1.15470 25864 ft 446 kts 148°
2026-04-21 16:49 51.37528 -1.13127 26069 ft 444 kts 162°
2026-04-21 16:49 51.34672 -1.11233 26319 ft 446 kts 159°
2026-04-21 16:49 51.31829 -1.09196 26550 ft 448 kts 159°
2026-04-21 16:50 51.28993 -1.07138 26862 ft 448 kts 159°
2026-04-21 16:50 51.26152 -1.05067 27119 ft 450 kts 159°
2026-04-21 16:50 51.23305 -1.02990 27366 ft 451 kts 159°
2026-04-21 16:50 51.20446 -1.00907 27609 ft 452 kts 159°
2026-04-21 16:51 51.17575 -0.98816 27839 ft 454 kts 159°
2026-04-21 16:51 51.14700 -0.96726 28055 ft 455 kts 159°
2026-04-21 16:51 51.11852 -0.94659 28297 ft 457 kts 159°
2026-04-21 16:51 51.08956 -0.92558 28464 ft 459 kts 159°
2026-04-21 16:52 51.06037 -0.90445 28623 ft 461 kts 159°
2026-04-21 16:52 51.03114 -0.88332 28846 ft 462 kts 159°
2026-04-21 16:52 51.00182 -0.86215 29045 ft 464 kts 159°
2026-04-21 16:52 50.97244 -0.84096 29257 ft 465 kts 159°
2026-04-21 16:53 50.94295 -0.81973 29468 ft 466 kts 159°
2026-04-21 16:53 50.91338 -0.79847 29687 ft 467 kts 159°
2026-04-21 16:53 50.88378 -0.77721 29908 ft 468 kts 159°
2026-04-21 16:53 50.85461 -0.75553 30101 ft 472 kts 154°
2026-04-21 16:54 50.82679 -0.72762 30365 ft 474 kts 150°
2026-04-21 16:54 50.79903 -0.69936 30533 ft 476 kts 150°
2026-04-21 16:54 50.77120 -0.67108 30736 ft 477 kts 150°
2026-04-21 16:54 50.74326 -0.64270 30952 ft 477 kts 150°
2026-04-21 16:55 50.71529 -0.61431 31169 ft 479 kts 150°
2026-04-21 16:55 50.68727 -0.58592 31388 ft 480 kts 150°
2026-04-21 16:55 50.65912 -0.55743 31624 ft 481 kts 150°
2026-04-21 16:55 50.63133 -0.52934 31833 ft 482 kts 150°
2026-04-21 16:56 50.60306 -0.50082 32084 ft 483 kts 150°
2026-04-21 16:56 50.57478 -0.47232 32332 ft 484 kts 150°
2026-04-21 16:56 50.54638 -0.44375 32577 ft 485 kts 150°
2026-04-21 16:56 50.51795 -0.41519 32830 ft 486 kts 150°
2026-04-21 16:57 50.48939 -0.38654 33081 ft 487 kts 150°
2026-04-21 16:57 50.46076 -0.35786 33358 ft 489 kts 150°
2026-04-21 16:57 50.43207 -0.32916 33605 ft 490 kts 150°
2026-04-21 16:57 50.40327 -0.30039 33863 ft 491 kts 150°
2026-04-21 16:58 50.37480 -0.27200 34194 ft 492 kts 151°
2026-04-21 16:58 50.34595 -0.24326 34499 ft 491 kts 150°
2026-04-21 16:58 50.31718 -0.21464 34795 ft 489 kts 150°
2026-04-21 16:58 50.28846 -0.18612 35071 ft 488 kts 150°
2026-04-21 16:59 50.25983 -0.15774 35348 ft 487 kts 150°
2026-04-21 16:59 50.23122 -0.12941 35596 ft 486 kts 150°
2026-04-21 16:59 50.20265 -0.10116 35846 ft 485 kts 150°
2026-04-21 16:59 50.17418 -0.07305 36078 ft 484 kts 150°
2026-04-21 17:00 50.14574 -0.04499 36318 ft 483 kts 150°
2026-04-21 17:00 50.11772 -0.01751 36539 ft 482 kts 152°
2026-04-21 17:00 50.09761 -0.00184 36684 ft 476 kts 164°
2026-04-21 17:00 50.05575 0.01629 36893 ft 473 kts 168°
2026-04-21 17:01 50.02394 0.02954 36989 ft 474 kts 169°
2026-04-21 17:01 49.99206 0.04244 37172 ft 473 kts 169°
2026-04-21 17:01 49.96018 0.05510 37326 ft 473 kts 169°
2026-04-21 17:01 49.92829 0.06766 37526 ft 472 kts 169°
2026-04-21 17:02 49.89651 0.08013 37704 ft 471 kts 169°
2026-04-21 17:02 49.86520 0.09240 37855 ft 471 kts 169°
2026-04-21 17:02 49.83348 0.10481 38012 ft 470 kts 169°
2026-04-21 17:02 49.80178 0.11720 38158 ft 470 kts 169°
2026-04-21 17:03 49.77009 0.12957 38297 ft 469 kts 169°
2026-04-21 17:03 49.73840 0.14192 38436 ft 469 kts 169°
2026-04-21 17:03 49.70680 0.15421 38580 ft 468 kts 169°
2026-04-21 17:03 49.67523 0.16678 38712 ft 468 kts 168°
2026-04-21 17:04 49.64373 0.17954 38833 ft 468 kts 168°
2026-04-21 17:04 49.58074 0.20489 39009 ft 468 kts 168°
2026-04-21 17:04 49.54971 0.21735 39120 ft 466 kts 168°
2026-04-21 17:05 49.51831 0.22994 39180 ft 467 kts 168°
2026-04-21 17:05 49.45543 0.25508 39151 ft 466 kts 168°
2026-04-21 17:06 49.39274 0.28010 39163 ft 466 kts 168°
2026-04-21 17:06 49.33000 0.30507 39156 ft 466 kts 168°
2026-04-21 17:07 49.27796 0.32692 39146 ft 466 kts 168°
2026-04-21 17:07 49.20531 0.35754 39138 ft 466 kts 168°
2026-04-21 17:08 49.14281 0.38377 39130 ft 466 kts 168°
2026-04-21 17:08 49.08028 0.40993 39129 ft 466 kts 168°
2026-04-21 17:09 48.98643 0.44907 39140 ft 467 kts 168°
2026-04-21 17:09 48.92371 0.47515 39134 ft 468 kts 168°
2026-04-21 17:10 48.86131 0.50103 39126 ft 468 kts 168°
2026-04-21 17:10 48.79855 0.52693 39121 ft 467 kts 168°
2026-04-21 17:11 48.73559 0.55165 39118 ft 467 kts 168°
2026-04-21 17:11 48.67259 0.57642 39117 ft 468 kts 168°
2026-04-21 17:12 48.61007 0.60095 39109 ft 467 kts 168°
2026-04-21 17:12 48.54716 0.62556 39107 ft 467 kts 168°
2026-04-21 17:13 48.48433 0.65096 39107 ft 467 kts 168°
2026-04-21 17:13 48.42157 0.67642 39090 ft 467 kts 168°
2026-04-21 17:14 48.35886 0.70178 39098 ft 466 kts 168°
2026-04-21 17:14 48.29662 0.72689 39092 ft 466 kts 168°
2026-04-21 17:15 48.23391 0.75188 39093 ft 466 kts 168°
2026-04-21 17:15 48.17126 0.77656 39087 ft 465 kts 168°
2026-04-21 17:16 48.10871 0.80116 39084 ft 465 kts 168°
2026-04-21 17:16 48.04659 0.82554 39076 ft 464 kts 168°
2026-04-21 17:17 47.98408 0.84999 39081 ft 464 kts 168°
2026-04-21 17:17 47.92153 0.87442 39081 ft 465 kts 168°
2026-04-21 17:18 47.85888 0.89881 39073 ft 465 kts 169°
2026-04-21 17:18 47.79667 0.92295 39055 ft 466 kts 169°
2026-04-21 17:19 47.73406 0.94719 39065 ft 464 kts 169°
2026-04-21 17:19 47.67156 0.97132 39065 ft 464 kts 169°
2026-04-21 17:20 47.60901 0.99541 39063 ft 464 kts 169°
2026-04-21 17:20 47.54693 1.01926 39052 ft 464 kts 169°
2026-04-21 17:21 47.48447 1.04320 39053 ft 464 kts 169°
2026-04-21 17:21 47.42173 1.06324 39029 ft 456 kts 183°
2026-04-21 17:22 47.35861 1.06228 39008 ft 455 kts 184°
2026-04-21 17:22 47.29574 1.06126 39046 ft 455 kts 185°
2026-04-21 17:23 47.23242 1.05982 39036 ft 455 kts 185°
2026-04-21 17:23 47.16913 1.05834 39026 ft 455 kts 185°
2026-04-21 17:24 47.10592 1.05686 39028 ft 454 kts 185°
2026-04-21 17:24 47.04279 1.05539 39022 ft 454 kts 185°
2026-04-21 17:25 46.98016 1.05277 39021 ft 453 kts 186°
2026-04-21 17:25 46.91711 1.05008 39012 ft 453 kts 186°
2026-04-21 17:26 46.85411 1.04744 39014 ft 453 kts 186°
2026-04-21 17:26 46.79115 1.04480 39010 ft 453 kts 186°
2026-04-21 17:27 46.72858 1.04218 39011 ft 453 kts 186°
2026-04-21 17:27 46.66556 1.03956 39001 ft 453 kts 186°
2026-04-21 17:28 46.60260 1.03693 38996 ft 453 kts 186°
2026-04-21 17:28 46.53961 1.03432 38983 ft 452 kts 186°
2026-04-21 17:29 46.47670 1.03334 38981 ft 452 kts 185°
2026-04-21 17:29 46.41420 1.03264 38978 ft 452 kts 185°
2026-04-21 17:30 46.35131 1.03189 38969 ft 452 kts 185°
2026-04-21 17:30 46.28847 1.03114 38972 ft 451 kts 185°
2026-04-21 17:31 46.22569 1.03040 38963 ft 451 kts 185°
2026-04-21 17:31 46.16337 1.02966 38943 ft 451 kts 185°
2026-04-21 17:32 46.10071 1.02892 38948 ft 450 kts 185°
2026-04-21 17:32 46.03816 1.02818 38945 ft 450 kts 185°
2026-04-21 17:33 45.97555 1.02744 38940 ft 450 kts 185°
2026-04-21 17:33 45.91306 1.02671 38939 ft 449 kts 185°
2026-04-21 17:34 45.85068 1.02598 38937 ft 448 kts 185°
2026-04-21 17:34 45.78886 1.03275 38951 ft 453 kts 173°
2026-04-21 17:35 45.72676 1.04863 38920 ft 452 kts 174°
2026-04-21 17:35 45.66473 1.06452 38909 ft 453 kts 174°
2026-04-21 17:36 45.60270 1.08042 38902 ft 453 kts 174°
2026-04-21 17:36 45.54115 1.09618 38906 ft 452 kts 174°
2026-04-21 17:37 45.47941 1.11195 38896 ft 450 kts 174°
2026-04-21 17:37 45.41765 1.12768 38891 ft 451 kts 174°
2026-04-21 17:38 45.35592 1.14338 38881 ft 450 kts 174°
2026-04-21 17:38 45.29477 1.15889 38888 ft 449 kts 174°
2026-04-21 17:39 45.23306 1.17451 38896 ft 452 kts 174°
2026-04-21 17:39 45.17109 1.18919 38859 ft 448 kts 182°
2026-04-21 17:40 45.14053 1.18637 38884 ft 435 kts 195°
2026-04-21 17:40 45.12073 1.18165 38879 ft 438 kts 193°
2026-04-21 17:40 45.05086 1.16510 38879 ft 438 kts 194°
2026-04-21 17:41 44.99091 1.14992 38868 ft 437 kts 195°
2026-04-21 17:41 44.93115 1.13465 38861 ft 434 kts 195°
2026-04-21 17:42 44.88179 1.12205 38869 ft 434 kts 195°
2026-04-21 17:42 44.81273 1.10445 38859 ft 434 kts 194°
2026-04-21 17:43 44.75335 1.08936 38860 ft 434 kts 194°
2026-04-21 17:43 44.70398 1.07683 38858 ft 434 kts 194°
2026-04-21 17:44 44.64459 1.06178 38850 ft 434 kts 194°
2026-04-21 17:44 44.58518 1.04677 38850 ft 434 kts 195°
2026-04-21 17:45 44.52582 1.03180 38850 ft 433 kts 195°
2026-04-21 17:45 44.46645 1.01686 38854 ft 433 kts 194°
2026-04-21 17:46 44.40753 1.00206 38837 ft 433 kts 195°
2026-04-21 17:46 44.34828 0.98720 38846 ft 432 kts 195°
2026-04-21 17:47 44.28912 0.97240 38844 ft 432 kts 195°
2026-04-21 17:47 44.22996 0.95764 38845 ft 432 kts 194°
2026-04-21 17:48 44.17091 0.94292 38843 ft 430 kts 195°
2026-04-21 17:48 44.11236 0.92837 38834 ft 430 kts 195°
2026-04-21 17:49 44.05337 0.91373 38833 ft 430 kts 195°
2026-04-21 17:49 43.99444 0.89914 38829 ft 430 kts 194°
2026-04-21 17:50 43.93567 0.88461 38832 ft 429 kts 194°
2026-04-21 17:50 43.87739 0.86976 38838 ft 428 kts 195°
2026-04-21 17:51 43.81888 0.85399 38830 ft 428 kts 195°
2026-04-21 17:51 43.76042 0.83836 38830 ft 428 kts 195°
2026-04-21 17:52 43.70201 0.82278 38830 ft 428 kts 195°
2026-04-21 17:52 43.64395 0.80733 38839 ft 428 kts 195°
2026-04-21 17:53 43.58553 0.79181 38832 ft 427 kts 195°
2026-04-21 17:53 43.52715 0.77633 38843 ft 427 kts 195°
2026-04-21 17:54 43.46878 0.76089 38830 ft 427 kts 195°
2026-04-21 17:54 43.41053 0.74552 38831 ft 426 kts 195°
2026-04-21 17:55 43.35281 0.73029 38834 ft 425 kts 195°
2026-04-21 17:55 43.29472 0.71501 38838 ft 425 kts 195°
2026-04-21 17:56 43.23664 0.69976 38844 ft 425 kts 195°
2026-04-21 17:56 43.17858 0.68455 38849 ft 425 kts 195°
2026-04-21 17:57 43.12090 0.66947 38852 ft 425 kts 195°
2026-04-21 17:57 43.06288 0.65432 38872 ft 424 kts 195°
2026-04-21 17:58 43.00485 0.63919 38876 ft 425 kts 195°
2026-04-21 17:58 42.94679 0.62410 38891 ft 425 kts 194°
2026-04-21 17:59 42.88885 0.60906 38880 ft 423 kts 195°
2026-04-21 17:59 42.83130 0.59416 38923 ft 424 kts 194°
2026-04-21 18:00 42.77333 0.57916 38916 ft 423 kts 195°
2026-04-21 18:00 42.71551 0.56424 38939 ft 424 kts 195°
2026-04-21 18:01 42.68731 0.55361 38924 ft 416 kts 208°
2026-04-21 18:01 42.66115 0.53693 38945 ft 418 kts 207°
2026-04-21 18:01 42.60867 0.50417 38918 ft 417 kts 208°
2026-04-21 18:02 42.55606 0.47068 38947 ft 419 kts 208°
2026-04-21 18:02 42.50317 0.43691 38915 ft 419 kts 208°
2026-04-21 18:03 42.45037 0.40325 38911 ft 420 kts 208°
2026-04-21 18:03 42.39787 0.36986 38897 ft 420 kts 208°
2026-04-21 18:04 42.34502 0.33629 38906 ft 420 kts 208°
2026-04-21 18:04 42.29214 0.30276 38884 ft 419 kts 208°
2026-04-21 18:05 42.23928 0.26932 38879 ft 420 kts 208°
2026-04-21 18:05 42.18634 0.23589 38853 ft 420 kts 208°
2026-04-21 18:06 42.13381 0.20277 38862 ft 420 kts 208°
2026-04-21 18:06 42.08090 0.16950 38860 ft 420 kts 207°
2026-04-21 18:07 42.05292 0.15766 38830 ft 424 kts 191°
2026-04-21 18:07 42.02361 0.15287 38872 ft 425 kts 191°
2026-04-21 18:07 41.96462 0.14290 38837 ft 428 kts 190°
2026-04-21 18:08 41.90570 0.13384 38846 ft 430 kts 189°
2026-04-21 18:08 41.84632 0.12493 38841 ft 429 kts 189°
2026-04-21 18:09 41.78693 0.11606 38840 ft 429 kts 189°
2026-04-21 18:09 41.72756 0.10722 38841 ft 429 kts 189°
2026-04-21 18:10 41.66816 0.09838 38839 ft 429 kts 189°
2026-04-21 18:10 41.60922 0.08963 38838 ft 429 kts 189°
2026-04-21 18:11 41.54983 0.08083 38821 ft 429 kts 189°
2026-04-21 18:11 41.49049 0.07205 38827 ft 429 kts 189°
2026-04-21 18:12 41.43112 0.06328 38828 ft 429 kts 189°
2026-04-21 18:12 41.37220 0.05460 38826 ft 429 kts 189°
2026-04-21 18:13 41.31285 0.04587 38815 ft 429 kts 189°
2026-04-21 18:13 41.25352 0.03716 38820 ft 429 kts 189°
2026-04-21 18:14 41.16454 0.02412 38821 ft 429 kts 189°
2026-04-21 18:15 41.10521 0.01544 38824 ft 429 kts 189°
2026-04-21 18:15 41.04592 0.00678 38834 ft 428 kts 189°
2026-04-21 18:16 40.98708 -0.00180 38844 ft 428 kts 189°
2026-04-21 18:16 40.92782 -0.01046 38838 ft 428 kts 189°
2026-04-21 18:17 40.86859 -0.01905 38849 ft 428 kts 189°
2026-04-21 18:17 40.80932 -0.02764 38851 ft 428 kts 189°
2026-04-21 18:18 40.75046 -0.03616 38850 ft 428 kts 189°
2026-04-21 18:18 40.69123 -0.04473 38864 ft 429 kts 189°
2026-04-21 18:19 40.63195 -0.05328 38879 ft 428 kts 189°
2026-04-21 18:19 40.57273 -0.06182 38875 ft 428 kts 189°
2026-04-21 18:19 40.54376 -0.06962 38868 ft 423 kts 201°
2026-04-21 18:20 40.51601 -0.08092 38882 ft 424 kts 199°
2026-04-21 18:20 40.45942 -0.10307 38863 ft 424 kts 200°
2026-04-21 18:21 40.40287 -0.12542 38863 ft 424 kts 200°
2026-04-21 18:21 40.34641 -0.14773 38862 ft 423 kts 200°
2026-04-21 18:22 40.29037 -0.16984 38861 ft 424 kts 200°
2026-04-21 18:22 40.23390 -0.19208 38861 ft 424 kts 200°
2026-04-21 18:23 40.17743 -0.21426 38866 ft 424 kts 200°
2026-04-21 18:23 40.12092 -0.23644 38881 ft 424 kts 200°
2026-04-21 18:24 40.06446 -0.25855 38904 ft 424 kts 200°
2026-04-21 18:24 40.00833 -0.28051 38886 ft 424 kts 200°
2026-04-21 18:25 39.95171 -0.30258 38901 ft 425 kts 200°
2026-04-21 18:25 39.89512 -0.32461 38900 ft 425 kts 200°
2026-04-21 18:26 39.83848 -0.34665 38913 ft 425 kts 200°
2026-04-21 18:26 39.78222 -0.36850 38897 ft 425 kts 200°
2026-04-21 18:27 39.72547 -0.39050 38913 ft 426 kts 200°
2026-04-21 18:27 39.66888 -0.41240 38268 ft 424 kts 200°
2026-04-21 18:27 39.64054 -0.42335 37455 ft 426 kts 200°
2026-04-21 18:28 39.61215 -0.43432 36741 ft 426 kts 200°
2026-04-21 18:28 39.58374 -0.44528 36097 ft 426 kts 200°
2026-04-21 18:28 39.55573 -0.45608 35403 ft 426 kts 200°
2026-04-21 18:28 39.52725 -0.46705 34649 ft 428 kts 200°
2026-04-21 18:29 39.49858 -0.47803 33918 ft 431 kts 199°
2026-04-21 18:29 39.46864 -0.48417 32929 ft 443 kts 186°
2026-04-21 18:29 39.43783 -0.48619 32110 ft 444 kts 187°
2026-04-21 18:29 39.40700 -0.48867 31417 ft 443 kts 187°
2026-04-21 18:30 39.37623 -0.49097 30712 ft 443 kts 187°
2026-04-21 18:30 39.34542 -0.49322 29885 ft 445 kts 186°
2026-04-21 18:30 39.31444 -0.49548 29049 ft 445 kts 186°
2026-04-21 18:30 39.28407 -0.49767 28467 ft 440 kts 186°
2026-04-21 18:31 39.25361 -0.49988 27858 ft 436 kts 186°
2026-04-21 18:31 39.22343 -0.50206 27252 ft 433 kts 186°
2026-04-21 18:31 39.19339 -0.50423 26645 ft 430 kts 186°
2026-04-21 18:31 39.16362 -0.50637 26040 ft 428 kts 186°
2026-04-21 18:32 39.13396 -0.50851 25439 ft 426 kts 186°
2026-04-21 18:32 39.10444 -0.51063 24841 ft 424 kts 186°
2026-04-21 18:32 39.07509 -0.51275 24260 ft 422 kts 186°
2026-04-21 18:32 39.04583 -0.51485 23675 ft 420 kts 186°
2026-04-21 18:33 39.01667 -0.51694 23019 ft 419 kts 186°
2026-04-21 18:33 38.98800 -0.51900 22411 ft 417 kts 186°
2026-04-21 18:33 38.95920 -0.52106 21822 ft 413 kts 186°
2026-04-21 18:33 38.93059 -0.52312 21259 ft 410 kts 186°
2026-04-21 18:34 38.90224 -0.52515 20697 ft 407 kts 186°
2026-04-21 18:34 38.87407 -0.52717 20138 ft 404 kts 186°
2026-04-21 18:34 38.84611 -0.52916 19605 ft 401 kts 186°
2026-04-21 18:34 38.81829 -0.53115 19057 ft 399 kts 186°
2026-04-21 18:35 38.79996 -0.53246 18719 ft 398 kts 186°
2026-04-21 18:35 38.76309 -0.53508 17989 ft 395 kts 186°
2026-04-21 18:35 38.73606 -0.53701 17435 ft 393 kts 186°
2026-04-21 18:35 38.70887 -0.53895 16904 ft 390 kts 186°
2026-04-21 18:36 38.68188 -0.54086 16400 ft 387 kts 186°
2026-04-21 18:36 38.65509 -0.54277 15889 ft 383 kts 186°
2026-04-21 18:36 38.62852 -0.54466 15404 ft 381 kts 186°
2026-04-21 18:36 38.60214 -0.54653 14926 ft 378 kts 186°
2026-04-21 18:37 38.57589 -0.54839 14434 ft 377 kts 186°
2026-04-21 18:37 38.54980 -0.55024 13981 ft 375 kts 186°
2026-04-21 18:37 38.52386 -0.55236 13470 ft 372 kts 189°
2026-04-21 18:37 38.49936 -0.56105 12670 ft 373 kts 205°
2026-04-21 18:38 38.47521 -0.57385 11868 ft 379 kts 204°
2026-04-21 18:38 38.45064 -0.58616 11235 ft 379 kts 203°
2026-04-21 18:38 38.42622 -0.59820 10905 ft 372 kts 203°
2026-04-21 18:38 38.40249 -0.60982 10753 ft 359 kts 203°
2026-04-21 18:39 38.37957 -0.62100 10591 ft 347 kts 203°
2026-04-21 18:39 38.35734 -0.63182 10409 ft 337 kts 203°
2026-04-21 18:39 38.33576 -0.64231 10239 ft 327 kts 203°
2026-04-21 18:39 38.31477 -0.65249 10078 ft 318 kts 203°
2026-04-21 18:40 38.29467 -0.66224 9910 ft 310 kts 203°
2026-04-21 18:40 38.27459 -0.67196 9570 ft 307 kts 203°
2026-04-21 18:40 38.26124 -0.67842 9314 ft 302 kts 203°
2026-04-21 18:40 38.23563 -0.69081 8862 ft 292 kts 203°
2026-04-21 18:41 38.21680 -0.69991 8551 ft 287 kts 203°
2026-04-21 18:41 38.19818 -0.70890 8241 ft 285 kts 203°
2026-04-21 18:41 38.17970 -0.71783 7923 ft 283 kts 203°
2026-04-21 18:41 38.16133 -0.72669 7618 ft 281 kts 203°
2026-04-21 18:42 38.14310 -0.73548 7311 ft 279 kts 203°
2026-04-21 18:42 38.12524 -0.74408 7006 ft 278 kts 203°
2026-04-21 18:42 38.10723 -0.75275 6710 ft 276 kts 203°
2026-04-21 18:42 38.08958 -0.76207 6391 ft 273 kts 213°
2026-04-21 18:43 38.07546 -0.77775 5999 ft 270 kts 227°
2026-04-21 18:43 38.06221 -0.79456 5724 ft 268 kts 226°
2026-04-21 18:43 38.04908 -0.81088 5592 ft 259 kts 224°
2026-04-21 18:43 38.03589 -0.82585 5500 ft 250 kts 224°
2026-04-21 18:44 38.02342 -0.84068 5381 ft 241 kts 225°
2026-04-21 18:44 38.01181 -0.85517 5254 ft 233 kts 226°
2026-04-21 18:44 38.00058 -0.86953 5123 ft 226 kts 227°
2026-04-21 18:44 37.98976 -0.88349 4990 ft 218 kts 227°
2026-04-21 18:45 37.97934 -0.89695 4859 ft 210 kts 227°
2026-04-21 18:45 37.96921 -0.91005 4739 ft 209 kts 227°
2026-04-21 18:45 37.95889 -0.92343 4537 ft 214 kts 227°
2026-04-21 18:45 37.94849 -0.93689 4302 ft 213 kts 226°
2026-04-21 18:46 37.93815 -0.95029 4048 ft 213 kts 226°
2026-04-21 18:46 37.92794 -0.96350 3800 ft 206 kts 226°
2026-04-21 18:46 37.91820 -0.97610 3554 ft 199 kts 226°
2026-04-21 18:46 37.90861 -0.98852 3296 ft 195 kts 225°
2026-04-21 18:47 37.89921 -1.00066 3045 ft 191 kts 225°
2026-04-21 18:47 37.89002 -1.01255 2791 ft 187 kts 225°
2026-04-21 18:47 37.88100 -1.02423 2552 ft 183 kts 224°
2026-04-21 18:47 37.87219 -1.03562 2316 ft 179 kts 224°
2026-04-21 18:48 37.86386 -1.04640 2124 ft 164 kts 224°
2026-04-21 18:48 37.85610 -1.05641 1929 ft 156 kts 223°
2026-04-21 18:48 37.84859 -1.06612 1700 ft 153 kts 223°
2026-04-21 18:48 37.84120 -1.07568 1497 ft 155 kts 223°
2026-04-21 18:49 37.83365 -1.08553 1274 ft 157 kts 224°
2026-04-21 18:49 37.82599 -1.09522 1097 ft 155 kts 224°
2026-04-21 18:49 37.82095 -1.10162 939 ft 154 kts 224°
2026-04-21 18:49 37.81112 -1.11448 660 ft 148 kts 224°
2026-04-21 18:50 37.80491 -1.12249 643 ft 97 kts 226°
2026-04-21 18:50 37.80134 -1.12711 641 ft 56 kts 225°
2026-04-21 18:50 37.79992 -1.12904 641 ft 22 kts 239°
2026-04-21 18:50 37.79917 -1.13079 643 ft 23 kts 253°
2026-04-21 18:51 37.79936 -1.13250 644 ft 18 kts 346°
2026-04-21 18:51 37.80033 -1.13152 643 ft 19 kts 47°
2026-04-21 18:51 37.80131 -1.13024 643 ft 21 kts 44°
2026-04-21 18:51 37.80242 -1.12888 643 ft 23 kts 44°
2026-04-21 18:52 37.80354 -1.12743 643 ft 17 kts 41°
2026-04-21 18:52 37.80437 -1.12766 643 ft 14 kts 316°
2026-04-21 18:52 37.80462 -1.12843 643 ft 8 kts 243°
2026-04-21 18:52 37.80420 -1.12905 643 ft 10 kts 224°
2026-04-21 18:53 37.80364 -1.12978 643 ft 12 kts 239°
2026-04-21 18:53 37.80397 -1.13052 643 ft 7 kts 316°
2026-04-21 18:53 37.80404 -1.13060 643 ft 0 kts 315°